Location: Cointrin
(46.2167°N, 6.1167°E)
Time: 16:27:19
(UTC+00:00)

Cosmos 2333 Rocket - Pass Details

Date: 08 February 2023
Orbit: 838 x 864 km, 70.8° (Epoch: 21 March)

Event Time Altitude Azimuth Distance (km) Brightness Sun altitude
Rises 17:09:19 0° 186° (S) 3,377 5.7 -3.9°
Reaches altitude 10° 17:11:49 10° 181° (S) 2,450 4.9 -4.3°
Maximum altitude 17:17:10 47° 109° (ESE) 1,103 2.5 -5.2°
Drops below altitude 10° 17:22:35 10° 37° (NE) 2,481 4.2 -6.1°
Sets 17:25:08 0° 32° (NNE) 3,425 4.9 -6.6°
